TimeEST,TemperatureF,Dew PointF,Humidity,Sea Level PressureIn,VisibilityMPH,Wind Direction,Wind SpeedMPH,Gust SpeedMPH,PrecipitationIn,Events,Conditions,WindDirDegrees,DateUTC
12:55 AM,37.9,30.0,73,30.22,10.0,North,4.6,-,N/A,,Overcast,360,2012-11-04 04:55:00
1:55 AM,37.9,26.1,62,30.23,10.0,NNE,5.8,-,N/A,,Overcast,20,2012-11-04 05:55:00
1:55 AM,37.0,25.0,62,30.24,10.0,North,4.6,-,N/A,,Overcast,10,2012-11-04 06:55:00
2:55 AM,37.0,26.1,65,30.23,10.0,NNE,3.5,-,N/A,,Overcast,20,2012-11-04 07:55:00
3:55 AM,37.0,25.0,62,30.22,10.0,NNE,3.5,-,N/A,,Overcast,30,2012-11-04 08:55:00
4:55 AM,37.0,25.0,62,30.24,10.0,North,4.6,-,N/A,,Overcast,10,2012-11-04 09:55:00
5:55 AM,37.0,25.0,62,30.25,10.0,North,3.5,-,N/A,,Overcast,10,2012-11-04 10:55:00
6:55 AM,36.0,25.0,64,30.24,10.0,ENE,5.8,-,N/A,,Overcast,60,2012-11-04 11:55:00
7:55 AM,35.1,25.0,67,30.25,10.0,NNE,3.5,-,N/A,,Scattered Clouds,30,2012-11-04 12:55:00
8:55 AM,37.9,26.1,62,30.25,10.0,NNE,5.8,-,N/A,,Mostly Cloudy,20,2012-11-04 13:55:00
9:55 AM,37.9,25.0,60,30.25,10.0,NNE,10.4,-,N/A,,Overcast,30,2012-11-04 14:55:00
10:55 AM,39.9,25.0,55,30.25,10.0,NNE,9.2,-,0.00,,Partly Cloudy,20,2012-11-04 15:55:00
11:35 AM,41.0,24.8,53,30.22,10.0,NNE,5.8,-,N/A,,Mostly Cloudy,30,2012-11-04 16:35:00
11:55 AM,39.9,25.0,55,30.24,10.0,NE,6.9,-,N/A,,Overcast,50,2012-11-04 16:55:00
12:29 PM,42.8,24.8,49,30.21,10.0,NE,5.8,-,N/A,,Overcast,50,2012-11-04 17:29:00
12:55 PM,42.1,25.0,51,30.23,10.0,NNW,4.6,-,N/A,,Mostly Cloudy,340,2012-11-04 17:55:00
1:55 PM,45.0,26.1,48,30.21,10.0,NNW,9.2,-,N/A,,Scattered Clouds,330,2012-11-04 18:55:00
2:55 PM,44.1,30.0,58,30.20,10.0,WNW,5.8,-,N/A,,Mostly Cloudy,300,2012-11-04 19:55:00
3:55 PM,44.1,28.9,55,30.19,10.0,West,5.8,-,N/A,,Partly Cloudy,280,2012-11-04 20:55:00
4:55 PM,42.1,28.0,58,30.19,10.0,NW,10.4,-,N/A,,Partly Cloudy,320,2012-11-04 21:55:00
5:55 PM,39.0,27.0,62,30.20,10.0,North,12.7,-,N/A,,Clear,350,2012-11-04 22:55:00
6:55 PM,37.0,27.0,67,30.22,10.0,North,5.8,-,N/A,,Clear,350,2012-11-04 23:55:00
7:55 PM,36.0,27.0,70,30.22,10.0,North,4.6,-,N/A,,Clear,350,2012-11-05 00:55:00
8:55 PM,36.0,27.0,70,30.22,10.0,North,5.8,-,N/A,,Clear,360,2012-11-05 01:55:00
9:55 PM,34.0,27.0,75,30.22,10.0,North,5.8,-,N/A,,Clear,350,2012-11-05 02:55:00
10:55 PM,34.0,27.0,75,30.22,10.0,North,4.6,-,N/A,,Clear,350,2012-11-05 03:55:00